TimeCDT,TemperatureF,Dew PointF,Humidity,Sea Level PressureIn,VisibilityMPH,Wind Direction,Wind SpeedMPH,Gust SpeedMPH,PrecipitationIn,Events,Conditions,WindDirDegrees,DateUTC
12:56 AM,42.1,23.0,47,30.23,10.0,North,6.9,-,N/A,,Clear,350,2013-03-26 05:56:00
1:56 AM,41.0,24.1,51,30.24,10.0,North,5.8,-,N/A,,Clear,350,2013-03-26 06:56:00
2:56 AM,37.9,24.1,57,30.24,10.0,NNW,4.6,-,N/A,,Clear,340,2013-03-26 07:56:00
3:56 AM,37.0,26.1,65,30.25,10.0,NNW,4.6,-,N/A,,Clear,340,2013-03-26 08:56:00
4:56 AM,37.9,26.1,62,30.26,10.0,NNW,6.9,-,N/A,,Clear,340,2013-03-26 09:56:00
5:56 AM,37.0,26.1,65,30.28,10.0,NNW,8.1,-,N/A,,Clear,340,2013-03-26 10:56:00
6:06 AM,37.4,26.6,65,30.28,10.0,NNW,9.2,-,N/A,,Clear,340,2013-03-26 11:06:00
6:56 AM,36.0,26.1,67,30.30,10.0,NNW,5.8,-,N/A,,Clear,340,2013-03-26 11:56:00
7:56 AM,39.0,25.0,57,30.32,10.0,NNW,11.5,18.4,N/A,,Clear,340,2013-03-26 12:56:00
8:56 AM,41.0,23.0,49,30.33,10.0,North,12.7,-,N/A,,Clear,350,2013-03-26 13:56:00
9:56 AM,44.1,19.9,38,30.34,10.0,NNW,10.4,21.9,N/A,,Partly Cloudy,340,2013-03-26 14:56:00
10:56 AM,46.9,21.0,36,30.33,10.0,NNW,11.5,23.0,N/A,,Partly Cloudy,330,2013-03-26 15:56:00
11:56 AM,48.9,21.9,35,30.31,10.0,NW,9.2,-,N/A,,Clear,320,2013-03-26 16:56:00
12:56 PM,51.1,21.0,31,30.30,10.0,NNW,9.2,19.6,N/A,,Clear,340,2013-03-26 17:56:00
1:56 PM,54.0,21.9,29,30.27,10.0,NNW,10.4,18.4,N/A,,Clear,340,2013-03-26 18:56:00
2:56 PM,55.0,23.0,29,30.25,10.0,NNW,6.9,19.6,N/A,,Clear,330,2013-03-26 19:56:00
3:56 PM,55.9,21.9,27,30.24,10.0,NNW,9.2,21.9,N/A,,Clear,340,2013-03-26 20:56:00
4:56 PM,55.0,21.9,28,30.24,10.0,NNW,12.7,19.6,N/A,,Clear,340,2013-03-26 21:56:00
5:56 PM,54.0,23.0,30,30.25,10.0,NNW,13.8,17.3,N/A,,Clear,340,2013-03-26 22:56:00
6:56 PM,51.1,24.1,35,30.27,10.0,NNW,8.1,-,N/A,,Clear,340,2013-03-26 23:56:00
7:56 PM,48.0,25.0,41,30.29,10.0,NNW,3.5,-,N/A,,Clear,340,2013-03-27 00:56:00
8:56 PM,46.0,25.0,44,30.32,10.0,North,5.8,-,N/A,,Clear,350,2013-03-27 01:56:00
9:56 PM,46.0,26.1,46,30.34,10.0,NNE,9.2,-,N/A,,Clear,20,2013-03-27 02:56:00
10:56 PM,44.1,26.1,49,30.36,10.0,North,6.9,-,N/A,,Clear,10,2013-03-27 03:56:00
11:56 PM,42.1,27.0,55,30.37,10.0,NNE,9.2,-,N/A,,Clear,20,2013-03-27 04:56:00